Cincinnati, OH

12:56 PM EDT on October 18, 2017 (GMT -0400)
Cincinnati Municipal-Lunken

Weather History for KLUK - June, 2013

Change the Weather History Date:

Thursday, June 20, 2013

  Actual Average Record
Temperature  
Mean Temperature 70 °F -  
Max Temperature 86 °F 83 °F 95 °F (1988)
Min Temperature 55 °F 63 °F 50 °F (2003)
Cooling Degree Days 6    
Growing Degree Days 20 (Base 50)    
Moisture  
Dew Point 59 °F    
Average Humidity 75    
Maximum Humidity 100    
Minimum Humidity 38    
Precipitation  
Precipitation 0.00 in - - ()
Sea Level Pressure  
Sea Level Pressure 30.17 in    
Wind  
Wind Speed 1 mph (SSW)    
Max Wind Speed 7 mph    
Max Gust Speed -    
Visibility 10 miles    
Events      
Averages and records for this station are not official NWS values.
T = Trace of Precipitation, MM = Missing Value Source: NWS Daily Summary

Daily Weather History Graph

Daily Weather History Graph

Search for Another Location

Airport or City:

Trip Planner

Search our weather history database for the weather conditions in past years. The results will help you decide how hot, cold, wet, or windy it might be!

Date:

Astronomy

Jun. 20, 2013 Rise Set
Actual Time 6:11 AM EDT 9:06 PM EDT
Civil Twilight 5:39 AM EDT 9:39 PM EDT
Nautical Twilight 4:58 AM EDT 10:19 PM EDT
Astronomical Twilight 4:11 AM EDT 11:06 PM EDT
Moon 6:08 PM EDT (6/20) 3:36 AM EDT (6/20)
Length of Visible Light 15h 59m
Length of Day
14h 55m
Waxing Gibbous, 89% of the Moon is Illuminated
Jun 20
Waxing Gibbous
Jun 23
Full
Jun 30
Last Quarter
Jul 8
New
Jul 15
First Quarter

Hourly Weather History & Observations

Time (EDT) Temp. Heat Index Dew Point Humidity Pressure Visibility Wind Dir Wind Speed Gust Speed Precip Events Conditions
12:53 AM 59.0 °F - 57.9 °F 96% 30.14 in 10.0 mi Calm Calm - N/A   Clear
1:53 AM 59.0 °F - 57.0 °F 93% 30.14 in 10.0 mi Calm Calm - N/A   Clear
2:53 AM 57.9 °F - 57.0 °F 97% 30.14 in 10.0 mi Calm Calm - N/A   Clear
3:53 AM 55.9 °F - 55.9 °F 100% 30.15 in 10.0 mi Calm Calm - N/A   Clear
4:09 AM 57.2 °F - 57.2 °F 100% 30.15 in 2.5 mi Calm Calm - N/A   Clear
4:17 AM 55.4 °F - 55.4 °F 100% 30.16 in 10.0 mi Calm Calm - N/A   Clear
4:53 AM 57.0 °F - 57.0 °F 100% 30.15 in 10.0 mi Calm Calm - N/A   Clear
5:53 AM 55.0 °F - 55.0 °F 100% 30.17 in 4.0 mi Calm Calm - N/A   Clear
6:53 AM 57.9 °F - 57.0 °F 97% 30.19 in 10.0 mi Calm Calm - N/A   Clear
7:03 AM 57.2 °F - 57.2 °F 100% 30.20 in 10.0 mi Calm Calm - N/A   Partly Cloudy
7:53 AM 62.1 °F - 59.0 °F 90% 30.20 in 10.0 mi Calm Calm - N/A   Clear
8:53 AM 66.0 °F - 61.0 °F 84% 30.21 in 10.0 mi Calm Calm - N/A   Clear
9:53 AM 72.0 °F - 63.0 °F 73% 30.21 in 9.0 mi Calm Calm - 0.00 in   Clear
10:53 AM 77.0 °F - 63.0 °F 62% 30.21 in 10.0 mi SW 5.8 mph - N/A   Clear
11:53 AM 79.0 °F - 61.0 °F 54% 30.21 in 10.0 mi Variable 4.6 mph - N/A   Clear
12:53 PM 81.0 °F 81.3 °F 59.0 °F 47% 30.19 in 10.0 mi Calm Calm - N/A   Partly Cloudy
1:53 PM 82.9 °F 83.3 °F 61.0 °F 47% 30.19 in 10.0 mi WSW 6.9 mph - N/A   Partly Cloudy
2:53 PM 82.9 °F 82.8 °F 59.0 °F 44% 30.18 in 10.0 mi Calm Calm - N/A   Partly Cloudy
3:53 PM 82.9 °F 82.8 °F 59.0 °F 44% 30.17 in 10.0 mi South 3.5 mph - N/A   Partly Cloudy
4:53 PM 86.0 °F 85.4 °F 59.0 °F 40% 30.17 in 10.0 mi North 3.5 mph - N/A   Partly Cloudy
5:53 PM 84.0 °F 83.0 °F 55.9 °F 38% 30.15 in 10.0 mi Calm Calm - N/A   Scattered Clouds
6:53 PM 82.9 °F 82.8 °F 59.0 °F 44% 30.15 in 10.0 mi Calm Calm - N/A   Partly Cloudy
7:53 PM 81.0 °F 81.1 °F 57.9 °F 45% 30.14 in 10.0 mi Calm Calm - N/A   Clear
8:53 PM 71.1 °F - 64.0 °F 78% 30.15 in 10.0 mi SE 3.5 mph - N/A   Clear
9:53 PM 69.1 °F - 60.1 °F 73% 30.16 in 10.0 mi Calm Calm - N/A   Clear
10:53 PM 66.0 °F - 61.0 °F 84% 30.17 in 10.0 mi Calm Calm - N/A   Clear
11:53 PM 63.0 °F - 60.1 °F 90% 30.19 in 10.0 mi Calm Calm - N/A   Clear